Location: Revò
(46.3917°N, 11.0587°E)
Time: 06:28:23
(UTC+02:00)

ISS - Visible Passes

Search period start: 27 September 2022 00:00
Search period end: 07 October 2022 00:00
Orbit: 414 x 417 km, 51.6° (Epoch: 26 September)

Date Brightness Start Highest point End Pass type
(mag) Time Alt. Az. Time Alt. Az. Time Alt. Az.
27 Sep -3.0 20:33:25 10° WNW 20:36:39 42° NNE 20:37:31 34° NE visible
27 Sep -0.3 22:10:11 10° WNW 22:10:24 11° WNW 22:10:24 11° WNW visible
28 Sep -2.7 19:44:42 10° WNW 19:47:51 35° N 19:50:40 12° ENE visible
28 Sep -2.2 21:21:26 10° WNW 21:23:33 36° WNW 21:23:33 36° WNW visible
29 Sep -3.8 20:32:43 10° WNW 20:36:05 71° NNE 20:36:44 52° E visible
30 Sep -3.4 19:44:00 10° WNW 19:47:18 51° NNE 19:49:57 15° E visible
30 Sep -1.7 21:20:52 10° WNW 21:22:50 26° WSW 21:22:50 26° WSW visible
01 Oct -3.3 20:31:59 10° WNW 20:35:17 54° SSW 20:36:05 41° SSE visible
02 Oct -3.8 19:43:10 10° WNW 19:46:33 84° SSW 19:49:25 13° ESE visible
02 Oct -1.0 21:20:52 10° W 21:22:18 14° WSW 21:22:18 14° WSW visible
03 Oct -1.7 20:31:30 10° W 20:34:13 23° SW 20:35:43 17° S visible
04 Oct -2.4 19:42:25 10° WNW 19:45:33 37° SW 19:48:39 10° SSE visible
06 Oct -1.0 19:42:08 10° W 19:44:17 16° SW 19:46:26 10° S visible
